Location: CAO
(44.5093°N, 80.3921°W)
Time: 10:24:07
(UTC-04:00)

Envisat - Visible Passes

Search period start: 13 October 2024 00:00
Search period end: 23 October 2024 00:00
Orbit: 762 x 764 km, 98.3° (Epoch: 12 October)

Date Brightness Start Highest point End Pass type
(mag) Time Alt. Az. Time Alt. Az. Time Alt. Az.
13 Oct 4.8 04:10:23 10° NNE 04:12:53 28° NE 04:12:53 28° NE visible
13 Oct 4.4 05:50:06 10° NNW 05:53:01 21° NW 05:53:01 21° NW visible
14 Oct 5.6 03:33:33 10° NE 03:34:49 15° NE 03:34:49 15° NE visible
14 Oct 4.1 05:11:57 10° N 05:14:57 32° NNW 05:14:57 32° NNW visible
15 Oct 4.4 04:34:16 10° NNE 04:36:53 31° NNE 04:36:53 31° NNE visible
15 Oct 4.8 06:15:01 10° NNW 06:17:01 14° NW 06:17:01 14° NW visible
16 Oct 5.3 03:57:02 10° NNE 03:58:49 20° NE 03:58:49 20° NE visible
16 Oct 4.4 05:36:18 10° N 05:38:57 24° NW 05:38:57 24° NW visible
17 Oct 6.0 03:20:32 10° NE 03:20:45 11° NE 03:20:45 11° NE visible
17 Oct 4.3 04:58:19 10° N 05:00:53 29° N 05:00:53 29° N visible
18 Oct 4.9 04:20:47 10° NNE 04:22:49 24° NNE 04:22:49 24° NNE visible
18 Oct 4.7 06:00:55 10° NNW 06:02:57 17° NW 06:02:57 17° NW visible
19 Oct 5.7 03:43:45 10° NE 03:44:44 15° NE 03:44:44 15° NE visible
19 Oct 4.4 05:22:33 10° N 05:24:52 24° NNW 05:24:52 24° NNW visible
20 Oct 4.7 04:44:44 10° N 04:46:48 25° N 04:46:48 25° N visible
20 Oct 5.0 06:26:17 10° NW 06:26:56 11° NW 06:26:56 11° NW visible
21 Oct 5.3 04:07:21 10° NNE 04:08:43 18° NNE 04:08:43 18° NNE visible
21 Oct 4.7 05:46:59 10° NNW 05:48:51 18° NNW 05:48:51 18° NNW visible
22 Oct 6.0 03:30:33 10° NE 03:30:38 10° NE 03:30:38 10° NE visible
22 Oct 4.7 05:08:51 10° N 05:10:46 22° N 05:10:46 22° N visible
